Probability
0 0 0 0 0 0 0 0 0 0 0 0 3 0 0 0 0 0 0 0 3 6 10 3 3 13 16 19 13 10 3 10 10 6 3 3 0 0 0 0 0 0 0 0
0 0 0 0 0 0 0 0 0 0 0 0 0 0 0 0 0 0 3 0 3 0 0 3 0 6 16 29 29 13 6 10 10 6 3 3 0 0 0 0 0 0 0 0
0 0 0 0 0 0 0 0 0 0 0 0 0 0 0 3 0 0 3 0 0 0 3 13 19 16 32 39 42 19 10 6 6 3 0 0 0 0 0 0 0 0 0 0
0 0 0 0 0 0 0 0 0 0 0 0 0 0 0 0 0 0 0 0 0 3 3 6 13 23 52 19 32 13 19 6 3 3 3 6 0 0 0 0 0 0 0 0
0 0 0 0 0 0 0 0 0 0 0 0 0 0 0 0 0 0 0 6 3 6 0 19 13 13 23 19 6 3 0 6 3 3 0 3 0 3 0 0 0 0 0 0
0 0 0 0 0 0 0 0 0 0 0 0 0 0 0 0 0 3 19 16 19 10 6 19 45 52 48 13 6 3 3 10 6 10 0 0 0 3 0 3 0 0 0 0
0 0 0 0 0 0 0 0 0 0 0 0 0 0 0 0 0 3 16 19 16 13 10 52 61 71 61 26 26 19 6 13 23 10 16 6 6 16 3 3 0 0 0 0
0 0 0 0 0 0 0 0 0 0 0 0 0 0 0 0 0 3 0 3 0 16 23 42 58 68 74 65 52 29 19 16 19 23 0 0 6 3 6 3 3 0 0 0
0 0 0 0 0 0 0 0 0 0 0 0 0 0 0 0 0 0 0 3 0 6 3 19 45 61 55 74 68 39 29 26 32 16 13 3 3 0 0 3 0 0 0 0
0 0 0 0 0 0 0 0 0 0 0 0 0 0 0 0 0 0 0 0 3 0 0 6 19 35 58 65 58 35 39 48 39 19 16 10 19 13 3 3 0 0 0 0
0 0 0 0 0 0 0 0 0 0 0 0 0 0 0 0 0 0 0 0 0 0 0 3 13 26 23 48 48 29 32 39 23 16 16 16 23 19 0 0 0 0 0 0
0 0 0 0 0 0 0 0 0 0 0 0 0 0 0 0 0 0 0 0 0 0 3 0 0 13 19 23 29 35 23 26 23 19 16 3 3 0 0 0 0 0 0 0
0 0 0 0 0 0 0 0 0 0 0 0 0 0 0 0 0 0 0 0 0 0 0 0 0 0 6 10 10 23 19 23 10 10 6 3 0 0 0 0 0 0 0 0
0 0 0 0 0 0 0 0 0 0 0 0 0 0 0 0 0 0 0 0 0 0 0 0 0 0 3 0 6 6 6 0 6 3 0 0 0 0 0 0 0 0 0 0
0 0 0 0 0 0 0 0 0 0 0 0 0 0 0 0 0 0 0 0 0 0 0 0 0 0 0 0 0 0 0 0 0 0 0 0 0 0 0 0 0 0 0 0
0 0 0 0 0 0 0 0 0 0 0 0 0 0 0 0 0 0 0 0 0 0 0 0 0 0 0 0 0 0 0 0 0 0 0 0 0 0 0 0 0 0 0 0
0 0 0 0 0 0 0 0 0 0 0 0 0 0 0 0 0 0 0 0 0 0 0 0 0 0 0 0 0 0 0 0 0 0 0 0 0 0 0 0 0 0 0 0
0 0 0 0 0 0 0 0 0 0 0 0 0 0 0 0 0 0 0 0 0 0 0 0 0 0 0 0 0 0 0 0 0 0 0 0 0 0 0 0 0 0 0 0
0 0 0 0 0 0 0 0 0 0 0 0 0 0 0 0 0 0 0 0 0 0 0 0 0 0 0 0 0 0 0 0 0 0 0 0 0 0 0 0 0 0 0 0
0 0 0 0 0 0 0 0 0 0 0 0 0 0 0 0 0 0 0 0 0 0 0 0 0 0 0 0 0 0 0 0 0 0 0 0 0 0 0 0 0 0 0 0
0 0 0 0 0 0 0 0 0 0 0 0 0 0 0 0 0 0 0 0 0 0 0 0 0 0 0 0 0 0 0 0 0 0 0 0 0 0 0 0 0 0 0 0
0 0 0 0 0 0 0 0 0 0 0 0 0 0 0 0 0 0 0 0 0 0 0 0 0 0 0 0 0 0 0 0 0 0 0 0 0 0 0 0 0 0 0 0
0 0 0 0 0 0 0 0 0 0 0 0 0 0 0 0 0 0 0 0 0 0 0 0 0 0 0 0 0 0 0 0 0 0 0 0 0 0 0 0 0 0 0 0
0 0 0 0 0 0 0 0 0 0 0 0 0 0 0 0 0 0 0 0 0 0 0 0 0 0 0 0 0 0 0 0 0 0 0 0 0 0 0 0 0 0 0 0
0 0 0 0 0 0 0 0 0 0 0 0 0 0 0 0 0 0 0 0 0 0 0 0 0 0 0 0 0 0 0 0 0 0 0 0 0 0 0 0 0 0 0 0
0 0 0 0 0 0 0 0 0 0 0 0 0 0 0 0 0 0 0 0 0 0 0 0 0 0 0 0 0 0 0 0 0 0 0 0 0 0 0 0 0 0 0 0
0 0 0 0 0 0 0 0 0 0 0 0 0 0 0 0 0 0 0 0 0 0 0 0 0 0 0 0 0 0 0 0 0 0 0 0 0 0 0 0 0 0 0 0
Height
5842 5840 5838 5836 5835 5833 5830 5827 5823 5820 5816 5812 5806 5801 5797 5792 5787 5782 5777 5772 5766 5760 5755 5751 5746 5742 5739 5736 5733 5730 5728 5725 5723 5720 5717 5714 5710 5707 5704 5701 5700 5699 5699 5701
5839 5836 5834 5831 5829 5826 5824 5820 5816 5811 5808 5803 5798 5793 5789 5784 5779 5773 5769 5764 5759 5754 5748 5743 5739 5735 5731 5729 5726 5723 5721 5718 5716 5714 5711 5708 5706 5703 5700 5698 5697 5696 5697 5698
5835 5832 5829 5826 5823 5819 5816 5812 5807 5803 5799 5794 5790 5785 5781 5776 5770 5765 5761 5756 5751 5746 5741 5737 5732 5728 5724 5721 5719 5716 5714 5712 5710 5708 5706 5704 5702 5699 5697 5696 5695 5695 5695 5696
5829 5827 5823 5823 5815 5811 5808 5804 5799 5794 5790 5786 5781 5776 5772 5766 5759 5755 5751 5747 5742 5738 5733 5729 5725 5721 5718 5715 5712 5710 5708 5706 5705 5703 5702 5701 5699 5697 5695 5694 5693 5693 5693 5694
5823 5820 5817 5814 5806 5803 5801 5795 5790 5786 5781 5775 5770 5766 5762 5756 5750 5745 5740 5736 5732 5728 5724 5720 5717 5713 5710 5707 5705 5703 5702 5701 5700 5698 5697 5697 5695 5694 5693 5692 5692 5692 5692 5692
5816 5812 5808 5803 5798 5795 5792 5785 5779 5774 5768 5763 5757 5752 5749 5744 5739 5734 5729 5725 5721 5718 5714 5711 5708 5705 5702 5700 5698 5697 5696 5695 5694 5693 5693 5692 5692 5691 5690 5690 5690 5690 5690 5691
5806 5802 5798 5792 5790 5787 5782 5776 5770 5763 5757 5751 5745 5739 5734 5729 5725 5720 5716 5712 5709 5706 5703 5701 5698 5696 5694 5692 5690 5690 5689 5689 5688 5688 5687 5687 5687 5687 5687 5687 5687 5687 5688 5688
5800 5795 5791 5786 5781 5776 5770 5762 5755 5749 5742 5736 5730 5724 5718 5713 5709 5705 5701 5698 5695 5692 5690 5689 5688 5685 5684 5683 5682 5682 5681 5682 5682 5682 5682 5682 5682 5683 5683 5683 5683 5684 5684 5685
5792 5787 5781 5775 5769 5762 5755 5748 5741 5733 5726 5719 5712 5706 5701 5696 5692 5688 5685 5682 5680 5678 5677 5676 5675 5673 5672 5673 5673 5673 5673 5674 5675 5676 5676 5676 5677 5678 5678 5679 5680 5680 5681 5682
5782 5775 5769 5762 5756 5748 5740 5732 5724 5715 5707 5699 5691 5685 5680 5675 5671 5668 5666 5664 5663 5662 5661 5661 5661 5660 5660 5661 5662 5663 5664 5666 5667 5669 5670 5670 5672 5673 5674 5675 5676 5676 5678 5679
5772 5766 5758 5750 5742 5734 5726 5716 5707 5697 5688 5678 5669 5663 5657 5652 5649 5646 5645 5644 5644 5643 5645 5645 5645 5646 5647 5649 5652 5653 5655 5657 5659 5661 5663 5664 5666 5667 5669 5670 5672 5673 5674 5676
5759 5752 5744 5737 5727 5717 5707 5697 5687 5677 5667 5658 5647 5638 5632 5628 5624 5622 5620 5621 5623 5624 5626 5628 5628 5629 5632 5635 5639 5642 5644 5647 5650 5653 5655 5657 5659 5661 5663 5665 5667 5668 5670 5672
5746 5738 5729 5719 5710 5699 5688 5677 5666 5654 5643 5634 5626 5617 5609 5603 5600 5597 5597 5597 5600 5603 5607 5610 5612 5614 5616 5621 5625 5629 5633 5637 5640 5643 5647 5650 5652 5655 5657 5659 5661 5663 5665 5667
5732 5723 5713 5702 5691 5679 5667 5656 5645 5635 5625 5616 5607 5599 5592 5586 5580 5577 5575 5575 5577 5582 5587 5591 5596 5598 5602 5606 5611 5616 5621 5626 5630 5634 5638 5641 5644 5647 5650 5653 5656 5658 5660 5662
5716 5705 5694 5683 5671 5660 5648 5637 5627 5619 5610 5602 5594 5586 5579 5572 5566 5561 5558 5556 5557 5561 5567 5573 5579 5583 5587 5592 5598 5604 5609 5615 5620 5624 5629 5632 5636 5640 5643 5646 5649 5652 5654 5656
5700 5688 5676 5664 5653 5642 5632 5623 5614 5606 5598 5590 5583 5575 5567 5560 5553 5548 5544 5541 5541 5544 5550 5556 5562 5568 5573 5579 5585 5592 5598 5605 5610 5614 5619 5624 5628 5632 5636 5639 5642 5645 5648 5650
5683 5671 5659 5647 5637 5628 5619 5611 5603 5595 5588 5580 5572 5564 5556 5548 5542 5537 5532 5529 5528 5530 5534 5540 5547 5554 5560 5566 5572 5579 5587 5594 5599 5605 5610 5615 5620 5624 5628 5632 5635 5638 5641 5644
5665 5653 5641 5630 5621 5614 5608 5601 5593 5586 5578 5570 5561 5553 5545 5537 5531 5526 5522 5518 5517 5518 5522 5526 5533 5541 5548 5555 5561 5568 5576 5583 5590 5596 5601 5606 5611 5616 5620 5624 5628 5631 5634 5637
5651 5639 5629 5620 5611 5604 5597 5590 5583 5576 5568 5559 5550 5542 5534 5526 5520 5515 5510 5508 5506 5506 5510 5515 5522 5530 5537 5545 5552 5559 5567 5575 5582 5587 5593 5598 5603 5608 5613 5617 5620 5623 5626 5629
5637 5627 5618 5610 5602 5595 5588 5581 5574 5567 5558 5549 5540 5532 5524 5516 5509 5504 5500 5497 5496 5496 5499 5504 5512 5520 5528 5535 5543 5551 5559 5568 5575 5580 5586 5591 5596 5601 5606 5609 5613 5616 5619 5623
5625 5616 5608 5600 5593 5587 5581 5573 5566 5558 5549 5541 5531 5522 5513 5506 5500 5495 5491 5489 5488 5488 5491 5496 5503 5512 5520 5528 5536 5544 5552 5561 5568 5574 5580 5585 5590 5595 5599 5603 5607 5610 5613 5616
5614 5606 5599 5591 5585 5579 5573 5566 5558 5550 5542 5533 5523 5514 5505 5498 5492 5487 5483 5481 5480 5480 5483 5488 5496 5505 5513 5522 5530 5538 5547 5555 5563 5569 5574 5579 5584 5589 5593 5597 5601 5604 5607 5610
5605 5598 5590 5583 5577 5572 5566 5560 5552 5544 5535 5525 5516 5507 5498 5490 5484 5479 5476 5474 5472 5473 5477 5483 5490 5499 5508 5516 5525 5533 5542 5550 5558 5564 5570 5575 5580 5584 5589 5593 5597 5600 5602 5605
5598 5591 5583 5577 5571 5566 5560 5554 5546 5538 5529 5520 5510 5500 5491 5484 5478 5473 5468 5466 5466 5467 5471 5478 5486 5494 5503 5511 5520 5528 5537 5546 5554 5560 5566 5571 5576 5581 5585 5589 5593 5596 5598 5601
5590 5583 5577 5571 5566 5560 5554 5548 5541 5533 5524 5515 5506 5496 5486 5478 5472 5467 5462 5460 5460 5462 5467 5473 5482 5490 5499 5507 5516 5525 5534 5542 5550 5557 5563 5568 5573 5577 5581 5585 5588 5592 5594 5597
5583 5577 5571 5566 5560 5555 5549 5543 5536 5528 5519 5510 5501 5492 5483 5474 5467 5462 5458 5456 5456 5459 5464 5471 5479 5488 5496 5504 5513 5522 5531 5539 5546 5553 5559 5564 5569 5574 5578 5581 5585 5588 5590 5592
5578 5572 5567 5563 5558 5553 5546 5539 5532 5524 5515 5505 5496 5488 5479 5472 5464 5459 5455 5453 5454 5457 5462 5469 5478 5486 5495 5503 5511 5520 5528 5536 5543 5550 5556 5561 5566 5570 5574 5577 5580 5583 5586 5588
Wind_Speed
12 13 16 18 19 22 24 26 29 29 30 31 34 36 38 38 39 39 39 39 40 40 39 37 36 35 34 33 33 31 31 30 29 27 26 25 24 23 21 20 19 17 18 20
14 17 19 20 21 23 24 25 27 30 32 34 37 38 39 40 41 41 41 40 40 39 39 37 36 35 33 32 31 30 29 27 26 24 22 21 20 18 17 15 13 13 13 15
17 19 21 22 22 25 27 27 30 33 36 38 39 39 39 40 43 44 43 41 41 40 39 38 37 34 32 32 30 29 27 25 23 21 19 18 17 15 13 11 10 8 8 9
24 24 24 20 28 31 32 31 34 37 39 40 40 40 40 42 45 45 44 43 42 41 40 39 38 35 33 32 29 28 25 23 21 19 17 16 14 13 11 8 7 6 6 7
28 28 27 26 33 35 34 37 39 40 41 42 43 43 43 44 45 45 45 45 44 42 41 39 38 36 33 31 28 26 24 22 20 18 16 14 13 11 10 8 7 7 7 7
31 32 32 34 37 38 39 43 44 45 47 49 49 50 49 47 47 46 46 46 45 43 41 39 37 35 33 31 27 25 24 22 20 18 16 14 13 11 10 9 8 8 7 7
37 37 37 41 41 42 45 48 48 49 51 51 51 52 53 52 50 49 48 47 45 44 42 39 37 35 33 31 27 26 25 23 21 18 16 15 13 12 11 11 10 9 8 8
38 39 42 44 45 47 49 52 53 54 55 56 56 56 56 54 52 50 49 47 46 45 43 39 37 35 33 30 28 26 25 24 22 20 18 16 15 13 12 12 11 10 9 8
41 42 44 45 48 50 53 55 57 59 60 61 62 61 60 58 55 53 51 48 46 45 43 40 38 36 33 31 29 27 26 25 24 21 20 18 16 15 14 13 12 11 10 9
42 44 47 50 52 55 57 59 61 63 65 66 66 66 65 62 59 56 53 49 46 45 43 41 40 37 34 32 30 28 27 27 26 23 21 20 18 16 15 14 13 12 11 11
44 47 50 52 55 58 60 62 64 66 67 68 67 68 67 65 62 59 57 53 50 46 43 42 41 38 34 33 31 29 29 29 28 26 23 22 20 18 17 15 13 13 12 11
49 52 55 57 60 63 65 67 68 70 70 70 71 72 70 68 66 62 58 54 52 50 46 44 42 39 35 33 32 31 30 30 30 29 26 24 22 20 19 17 15 15 14 13
53 56 59 62 65 67 69 70 71 71 72 70 69 68 66 63 60 59 57 55 52 48 45 44 44 42 39 33 33 32 31 31 32 31 29 27 24 22 21 19 18 17 16 16
57 60 63 66 67 68 70 70 70 68 65 61 58 55 53 51 49 47 47 48 47 47 45 44 44 42 40 36 34 33 32 32 32 32 31 29 26 24 22 21 20 19 18 18
61 65 67 69 69 70 68 64 60 55 51 49 48 48 48 48 46 43 40 39 41 42 43 43 43 42 40 36 34 32 32 32 33 34 32 31 28 26 24 23 22 21 20 19
65 67 68 69 69 65 58 53 49 47 45 46 47 48 47 46 44 40 37 35 36 37 39 40 41 42 40 37 36 34 33 33 33 34 34 33 30 28 26 24 23 22 22 21
68 69 69 68 64 56 50 47 45 44 45 47 47 47 46 44 41 38 35 33 32 32 34 37 38 40 39 36 36 35 33 32 31 33 34 34 32 30 29 27 25 24 23 22
67 67 65 62 56 50 46 44 43 44 46 47 47 48 46 44 40 37 34 31 29 29 30 34 37 38 38 37 36 35 33 31 31 31 32 32 32 31 30 28 27 26 24 23
65 62 58 53 49 45 44 42 43 44 46 47 47 47 46 43 40 37 33 30 27 27 28 32 35 37 38 37 37 36 34 30 29 30 30 29 29 29 29 28 27 26 24 22
60 55 50 47 44 42 41 40 42 44 45 46 46 45 44 41 38 34 30 27 24 24 25 31 34 36 36 36 37 38 35 31 28 27 27 27 28 28 28 27 25 24 22 20
53 48 45 43 40 38 37 39 42 43 44 45 46 46 44 39 35 31 28 25 22 22 23 30 34 35 35 35 35 36 35 32 28 26 24 24 25 26 25 23 22 20 19 17
47 44 42 40 37 35 35 38 40 42 44 44 46 45 42 37 33 30 27 23 20 20 23 29 33 35 35 35 35 36 36 34 29 25 23 22 22 22 22 20 19 17 16 15
43 41 39 37 34 33 34 36 39 41 43 44 44 43 41 36 32 29 25 22 18 18 21 27 32 34 34 34 34 35 36 33 29 25 23 21 20 20 19 18 17 15 13 12
41 38 35 33 31 32 33 35 37 39 42 42 43 43 40 36 31 28 24 20 16 16 20 27 31 33 33 33 34 35 35 33 29 25 24 22 20 19 18 17 16 15 13 11
39 36 32 30 29 30 32 34 36 39 41 41 42 41 38 34 30 26 21 16 13 15 20 27 30 31 32 33 35 36 35 33 30 27 25 23 21 19 18 17 16 15 14 12
37 34 30 29 29 30 33 35 37 39 41 40 40 40 38 33 28 24 19 12 10 14 20 27 30 31 31 33 35 36 35 33 31 28 25 23 22 21 19 18 17 16 15 14
34 31 28 26 26 29 32 34 36 38 39 39 39 38 35 32 28 22 15 7 7 14 21 26 29 30 31 33 35 36 35 33 31 28 26 24 23 21 20 19 17 17 16 16
Wind_Direction
297 293 291 292 292 290 290 293 293 296 295 295 294 297 300 303 306 307 308 309 311 312 313 311 307 303 300 297 295 292 291 293 293 295 297 297 298 298 295 292 286 274 257 253
304 300 300 301 299 296 294 294 292 293 293 295 298 300 302 304 305 305 307 308 310 311 312 312 310 306 301 298 295 293 292 293 293 293 295 298 300 303 299 294 286 273 258 249
310 305 306 308 302 298 299 298 295 294 296 299 300 302 303 303 301 302 304 306 307 309 310 310 309 307 303 299 295 290 290 291 290 290 291 296 298 301 300 292 283 272 260 254
314 312 311 307 295 296 300 301 298 299 301 302 301 301 301 299 299 302 303 303 304 306 306 307 308 306 303 299 293 288 285 286 289 286 287 291 294 297 297 296 292 283 273 267
313 312 311 298 295 301 306 303 303 305 303 302 301 300 298 297 298 299 299 299 300 301 302 302 303 302 301 299 290 284 280 279 282 283 281 282 286 286 286 284 280 278 273 266
312 311 310 302 304 310 310 305 307 306 304 303 302 300 299 297 296 295 294 294 295 296 296 297 298 297 295 295 288 281 274 272 275 275 274 275 275 274 270 267 268 268 267 264
314 311 306 305 310 310 306 304 302 301 300 299 297 296 296 296 294 292 291 290 290 290 290 292 292 292 291 288 283 277 271 265 268 268 268 268 268 266 263 264 263 260 259 262
308 306 303 308 307 305 303 301 300 300 298 297 296 295 294 293 292 290 289 287 286 286 286 286 286 285 284 281 278 272 266 260 260 262 261 260 260 258 256 257 256 255 256 258
307 305 304 304 303 302 301 300 300 299 298 297 295 294 292 291 289 287 286 283 283 282 281 280 279 278 275 274 270 265 261 255 253 255 255 254 252 254 251 250 250 252 253 255
305 305 305 304 303 303 303 302 301 300 298 296 295 293 291 289 287 284 281 278 277 276 275 274 273 272 270 268 265 259 256 251 249 250 250 249 248 248 249 248 249 251 253 256
302 303 303 304 304 303 303 302 300 299 297 296 294 292 290 287 285 282 279 275 273 271 269 268 266 264 265 263 261 256 252 248 244 244 246 246 246 246 246 246 246 248 251 255
306 307 306 306 305 305 304 303 301 299 297 296 295 293 291 289 286 284 280 274 272 270 266 262 260 258 257 255 254 252 248 245 242 240 241 243 243 243 244 244 245 248 252 255
308 308 308 308 307 306 305 303 302 300 299 298 299 299 299 296 292 288 285 279 272 266 261 257 256 255 253 249 248 247 244 243 240 237 237 239 240 241 242 244 246 250 254 257
309 310 310 310 309 308 306 304 304 304 305 307 308 308 309 307 304 297 289 281 272 264 257 253 251 251 248 245 241 241 240 239 238 235 235 236 237 239 241 244 247 250 254 259
315 314 313 313 311 309 308 309 310 311 312 313 313 312 313 312 310 304 294 282 270 262 255 251 248 246 243 240 236 236 236 236 236 234 234 235 236 238 240 243 247 250 254 259
317 315 313 312 312 312 313 314 315 316 316 317 316 315 314 313 310 308 299 288 273 260 252 246 243 242 239 235 231 230 233 233 235 234 233 234 235 237 239 242 246 250 254 258
317 316 314 314 314 315 315 316 316 316 317 317 318 317 317 315 311 308 301 292 278 261 250 243 239 237 236 232 226 224 226 230 234 234 233 233 235 237 239 242 246 250 253 256
317 315 314 314 315 316 317 317 317 317 318 318 319 319 318 316 312 307 302 294 279 262 248 239 233 231 230 227 223 222 223 227 231 231 231 231 233 234 237 240 245 249 252 253
316 315 315 315 316 317 318 319 318 319 320 319 319 320 319 317 313 308 301 293 279 262 246 234 227 225 225 222 218 219 219 222 226 228 228 229 230 231 234 239 244 250 249 247
317 316 316 316 317 318 318 319 320 322 323 324 323 321 320 317 313 309 302 293 281 262 242 228 220 219 219 217 215 215 214 216 222 226 226 227 227 228 233 237 242 245 246 244
319 318 318 318 319 320 321 322 324 326 327 327 327 324 322 320 316 310 304 295 280 258 237 222 214 213 214 213 211 210 210 212 216 220 222 223 224 226 229 231 235 240 243 241
321 321 320 320 321 322 325 326 327 329 331 330 330 329 327 324 318 312 305 296 277 254 233 218 211 209 209 209 208 208 208 208 209 214 215 216 217 219 220 223 228 234 239 241
323 323 323 322 322 324 327 329 330 332 333 334 333 332 330 327 322 316 309 296 274 249 228 213 207 204 205 207 206 204 203 204 205 207 207 207 209 212 215 219 223 228 233 240
324 325 324 324 324 327 329 331 333 334 335 335 334 333 331 328 324 320 311 297 272 241 220 207 202 202 203 203 201 198 199 200 201 203 205 205 207 209 212 216 220 225 232 241
327 327 327 327 328 330 332 334 336 337 337 337 337 337 335 332 329 324 314 297 262 230 211 200 196 197 198 197 196 194 195 196 197 200 203 205 207 209 212 217 222 228 237 246
330 330 330 331 332 334 335 336 338 340 340 339 340 341 340 338 335 330 319 299 251 216 200 192 188 190 192 191 191 190 191 194 197 200 202 206 209 212 216 221 226 233 241 248
331 331 330 332 332 334 337 339 341 343 343 342 344 345 345 344 342 339 329 297 220 197 188 184 182 183 185 188 189 190 193 195 198 201 204 208 211 216 221 226 231 237 243 249